Regional Weather Roundup
Issued by NWS Green Bay, WI

Home | Current Version | Previous Version | Text Only | Print | Product List | Glossary On
Versions: 1 2 3 4 5 6 7 8 9 10 11 12 13 14 15 16 17 18 19 20 21 22 23 24 25 26 27 28 29 30 31 32 33 34 35 36 37 38 39 40 41 42 43 44 45 46 47 48 49 50
000
ASUS43 KGRB 271600
RWRGRB

NORTH-CENTRAL AND NORTHEAST WISCONSIN REGIONAL WEATHER ROUNDUP
NATIONAL WEATHER SERVICE GREEN BAY WI
1100 AM CDT WED MAY 27 2015

WIZ005-009-010>012-018-019-271700-
NORTH CENTRAL WISCONSIN

CITY           SKY/WX    TMP DP  RH WIND       PRES   REMARKS
IRONWOOD       MOSUNNY   70  57  64 W10       29.82R
MANITOWISH WTR NOT AVBL
ARBOR VITAE    NOT AVBL
EAGLE RIVER    NOT AVBL
LAND O LAKES   NOT AVBL
RHINELANDER    PTSUNNY   61  57  87 SW12      29.90R
PHILLIPS       NOT AVBL
ANTIGO         NOT AVBL
TOMAHAWK       NOT AVBL
MERRILL        NOT AVBL
$$

WIZ013-073-271700-
NORTHEAST WISCONSIN

CITY           SKY/WX    TMP DP  RH WIND       PRES   REMARKS
IRON MOUNTAIN  CLOUDY    60  56  86 VRB6      29.82S
MARINETTE      PTSUNNY   59  55  88 W5        29.87R
$$

WIZ017-030-035>037-045-271700-
CENTRAL WISCONSIN

CITY           SKY/WX    TMP DP  RH WIND       PRES   REMARKS
MEDFORD        NOT AVBL
WAUSAU         LGT RAIN  59  56  89 NW10      29.92R
MOSINEE        CLOUDY    59  59 100 W5          N/A
MARSHFIELD     CLOUDY    63  57  81 W8        29.94R
WISC RAPIDS    CLOUDY    64  57  78 W5        29.95S
STEVENS POINT  NOT AVBL
WAUPACA        NOT AVBL
SHAWANO        NOT AVBL
CLINTONVILLE   NOT AVBL
$$

WIZ038-039-048-051-271700-
FOX VALLEY

CITY           SKY/WX    TMP DP  RH WIND       PRES   REMARKS
NWS GREEN BAY  CLOUDY    61  57  87 NW9       29.91R FOG
APPLETON       LGT RAIN  57  57 100 NW14      29.94R FOG
OSHKOSH        LGT RAIN  59  55  87 N16G23    29.93R FOG
FOND DU LAC    CLOUDY    63  55  75 NW16      29.93R
$$

WIZ022-050-052-271700-
EAST CENTRAL WISCONSIN

CITY           SKY/WX    TMP DP  RH WIND       PRES   REMARKS
STURGEON BAY   CLOUDY    57  54  88 W10       29.91R
MANITOWOC      NOT AVBL
SHEBOYGAN      CLOUDY    65  57  75 W15       29.90R
$$

LMZ563-521-522-541>543-271700-
LAKESHORE

STATION/POSITION TIME  TEMP    WIND        PRES    VSBY  WAVE
                       AIR SEA DIR/SP/G                  HT/PER
                 (UTC) (F)     (DEG/KT/KT) (MB)    (MI)  (FT/S)
SHEBOYGAN LKSHOR 1500   65     290/ 13/ 16 1011.8R
KEWAUNEE LKSHORE 1500   60     290/  9/ 14 1010.4R
ALGOMA MARINA    1508          310/  7/ 13   N/A
TWO RIVERS CG    1500   62                 1012.1      6   1
NORTHPORT PIER   1500   56     290/  7/ 14 1009.5R
N MID LAKE BUOY  1450   41 37  210/  8/  8 1009.2R         4/ 6
SISTER BAY LKSHO 1518   55     290/  7/  8   N/A
STURGEON BAY CG  1450   57     320/  5     1009.7   3 1/2  1
CHAMBERS ISLAND  1500   56     270/  1/  7 1010.2R
MENOMINEE LKSHOR 1500   59     290/  5/  8 1010.8R
$$



USA.gov is the U.S. government's official web portal to all federal, state and local government web resources and services.